When you browse on this site, cookies collect data to enhance your experience and personalize the content and advertising you see.
Visit our Privacy Policy to learn more. By continuing to use the site, you agree to this use of cookies and data.
  • In Portugal
  • List of Countries
  • For 7 days
  • Water Temperature
  • Satellite Maps
  • Weather Map
  • Weather Widgets
  • user-avatar
    Login

    Hourly Weather Rogow

    Today, 16 January, Wednesday

    Time Temperature Precipitation Wind Pressure Humidity
    00:00 -1°C° 0.4 mm 9 mps 729 mmHg 92%
    01:00 0°C° 0 mm 7 mps 728 mmHg 93%
    02:00 0°C° 0.3 mm 7 mps 729 mmHg 93%
    03:00 0°C° 0.3 mm 8 mps 729 mmHg 93%
    04:00 0°C° 0.3 mm 8 mps 730 mmHg 93%
    05:00 0°C° 0.2 mm 7 mps 731 mmHg 94%
    06:00 -1°C° 0.2 mm 6 mps 731 mmHg 94%
    07:00 0°C° 0.2 mm 5 mps 732 mmHg 95%
    08:00 0°C° 0.5 mm 4 mps 732 mmHg 96%
    09:00 0°C° 0.5 mm 4 mps 733 mmHg 97%
    10:00 +1°C° 0.5 mm 3 mps 733 mmHg 98%
    11:00 +1°C° 0.3 mm 3 mps 733 mmHg 98%
    12:00 0°C° 0.3 mm 4 mps 734 mmHg 98%
    13:00 +1°C° 0.3 mm 4 mps 734 mmHg 98%
    14:00 +1°C° 0.1 mm 4 mps 734 mmHg 97%
    15:00 +1°C° 0.1 mm 5 mps 734 mmHg 96%
    16:00 +1°C° 0.1 mm 5 mps 734 mmHg 95%
    17:00 0°C° 0 mm 4 mps 734 mmHg 94%
    18:00 0°C° 0 mm 4 mps 734 mmHg 93%
    19:00 0°C° 0 mm 4 mps 734 mmHg 93%
    20:00 -1°C° 0 mm 4 mps 734 mmHg 92%
    21:00 -1°C° 0 mm 4 mps 734 mmHg 92%
    22:00 -1°C° 0 mm 4 mps 734 mmHg 91%
    23:00 -1°C° 0 mm 4 mps 733 mmHg 90%

    Tomorrow, 17 January, Thursday

    Time Temperature Precipitation Wind Pressure Humidity
    00:00 -1°C° 0 mm 5 mps 733 mmHg 90%
    01:00 -1°C° 0 mm 5 mps 733 mmHg 89%
    02:00 -1°C° 0 mm 5 mps 732 mmHg 85%
    03:00 -2°C° 0 mm 6 mps 732 mmHg 81%
    04:00 -1°C° 0 mm 6 mps 731 mmHg 77%
    05:00 -1°C° 0 mm 6 mps 731 mmHg 74%
    06:00 -1°C° 0 mm 6 mps 730 mmHg 71%
    07:00 -1°C° 0 mm 7 mps 730 mmHg 68%
    08:00 -1°C° 0 mm 7 mps 730 mmHg 70%
    09:00 0°C° 0 mm 7 mps 730 mmHg 72%
    10:00 0°C° 0 mm 7 mps 730 mmHg 73%
    11:00 0°C° 0 mm 7 mps 730 mmHg 75%
    12:00 0°C° 0 mm 7 mps 731 mmHg 78%
    13:00 +1°C° 0 mm 6 mps 731 mmHg 80%
    14:00 +1°C° 0 mm 6 mps 731 mmHg 81%
    15:00 +1°C° 0 mm 6 mps 731 mmHg 83%
    16:00 +1°C° 0 mm 5 mps 731 mmHg 84%
    17:00 +1°C° 0 mm 6 mps 731 mmHg 84%
    18:00 -1°C° 0 mm 6 mps 731 mmHg 84%
    19:00 -1°C° 0 mm 6 mps 731 mmHg 84%
    20:00 +1°C° 0 mm 6 mps 731 mmHg 84%
    21:00 0°C° 0 mm 7 mps 731 mmHg 84%
    22:00 0°C° 0 mm 7 mps 731 mmHg 84%
    23:00 +1°C° 0.1 mm 6 mps 731 mmHg 84%

    Day after tomorrow, 18 January, Friday

    Time Temperature Precipitation Wind Pressure Humidity
    00:00 -1°C° 0.1 mm 6 mps 731 mmHg 83%
    01:00 -1°C° 0.1 mm 6 mps 732 mmHg 82%
    02:00 -2°C° 0 mm 6 mps 732 mmHg 80%
    03:00 -3°C° 0 mm 6 mps 732 mmHg 78%
    04:00 -3°C° 0 mm 6 mps 732 mmHg 76%
    05:00 -3°C° 0 mm 6 mps 732 mmHg 75%
    06:00 -3°C° 0 mm 7 mps 733 mmHg 75%
    07:00 -3°C° 0 mm 7 mps 733 mmHg 74%
    08:00 -4°C° 0.1 mm 8 mps 734 mmHg 75%
    09:00 -4°C° 0.1 mm 8 mps 735 mmHg 77%
    10:00 -4°C° 0.1 mm 8 mps 735 mmHg 78%
    11:00 -4°C° 0.1 mm 8 mps 736 mmHg 77%
    12:00 -4°C° 0.1 mm 8 mps 737 mmHg 76%
    13:00 -3°C° 0.1 mm 7 mps 738 mmHg 75%
    14:00 -3°C° 0.1 mm 7 mps 739 mmHg 77%
    15:00 -3°C° 0.1 mm 6 mps 739 mmHg 78%
    16:00 -2°C° 0.1 mm 5 mps 740 mmHg 79%
    17:00 -4°C° 0 mm 5 mps 741 mmHg 80%
    18:00 -3°C° 0 mm 4 mps 742 mmHg 80%
    19:00 -4°C° 0 mm 3 mps 742 mmHg 81%
    20:00 -4°C° 0 mm 3 mps 743 mmHg 82%
    21:00 -3°C° 0 mm 2 mps 743 mmHg 83%
    22:00 -3°C° 0 mm 2 mps 743 mmHg 84%
    23:00 -3°C° 0 mm 2 mps 744 mmHg 85%

    19 January, Saturday

    Time Temperature Precipitation Wind Pressure Humidity
    00:00 -3°C° 0 mm 2 mps 744 mmHg 85%
    01:00 -3°C° 0 mm 2 mps 744 mmHg 85%
    02:00 -3°C° 0 mm 2 mps 744 mmHg 86%
    03:00 -3°C° 0 mm 2 mps 744 mmHg 86%
    04:00 -3°C° 0 mm 2 mps 744 mmHg 86%
    05:00 -4°C° 0 mm 2 mps 744 mmHg 86%
    06:00 -4°C° 0 mm 2 mps 744 mmHg 86%
    07:00 -4°C° 0 mm 2 mps 744 mmHg 87%
    08:00 -3°C° 0 mm 2 mps 744 mmHg 83%
    09:00 -3°C° 0 mm 2 mps 744 mmHg 80%
    10:00 -2°C° 0 mm 3 mps 744 mmHg 76%
    11:00 -2°C° 0 mm 2 mps 744 mmHg 74%
    12:00 -1°C° 0 mm 2 mps 744 mmHg 71%
    13:00 -1°C° 0 mm 2 mps 743 mmHg 69%
    14:00 +1°C° 0 mm 1 mps 743 mmHg 72%
    15:00 0°C° 0 mm 1 mps 743 mmHg 75%
    16:00 0°C° 0 mm 1 mps 743 mmHg 78%
    17:00 0°C° 0 mm 1 mps 743 mmHg 78%
    18:00 -1°C° 0 mm 1 mps 743 mmHg 79%
    19:00 -1°C° 0 mm 1 mps 743 mmHg 79%
    20:00 -1°C° 0 mm 1 mps 743 mmHg 79%
    21:00 -1°C° 0 mm 1 mps 743 mmHg 78%
    22:00 -2°C° 0 mm 0 mps 743 mmHg 78%
    23:00 -2°C° 0 mm 0 mps 743 mmHg 77%

    20 January, Sunday

    Time Temperature Precipitation Wind Pressure Humidity
    00:00 -3°C° 0 mm 0 mps 743 mmHg 77%
    01:00 -3°C° 0 mm 0 mps 742 mmHg 76%
    02:00 -3°C° 0 mm 0 mps 742 mmHg 76%
    03:00 -3°C° 0 mm 0 mps 742 mmHg 76%
    04:00 -3°C° 0 mm 0 mps 742 mmHg 75%
    05:00 -3°C° 0 mm 0 mps 742 mmHg 76%
    06:00 -3°C° 0 mm 0 mps 742 mmHg 76%
    07:00 -2°C° 0 mm 1 mps 742 mmHg 76%
    08:00 -2°C° 0 mm 1 mps 743 mmHg 75%
    09:00 -1°C° 0 mm 1 mps 743 mmHg 74%
    10:00 -1°C° 0 mm 1 mps 743 mmHg 72%
    11:00 0°C° 0 mm 1 mps 743 mmHg 71%
    12:00 -2°C° 0 mm 2 mps 743 mmHg 70%
    13:00 -1°C° 0 mm 2 mps 743 mmHg 68%
    14:00 -2°C° 0 mm 2 mps 743 mmHg 71%
    15:00 -2°C° 0 mm 2 mps 743 mmHg 74%
    16:00 -2°C° 0 mm 2 mps 743 mmHg 77%
    17:00 -4°C° 0 mm 3 mps 743 mmHg 79%
    18:00 -4°C° 0 mm 3 mps 743 mmHg 80%
    19:00 -4°C° 0 mm 3 mps 744 mmHg 82%
    20:00 -4°C° 0 mm 3 mps 744 mmHg 84%
    21:00 -4°C° 0 mm 3 mps 745 mmHg 86%
    22:00 -4°C° 0 mm 3 mps 745 mmHg 88%
    23:00 -4°C° 0 mm 3 mps 745 mmHg 88%

    21 January, Monday

    Time Temperature Precipitation Wind Pressure Humidity
    00:00 -5°C° 0 mm 3 mps 746 mmHg 88%
    01:00 -5°C° 0 mm 3 mps 746 mmHg 88%
    02:00 -4°C° 0 mm 2 mps 746 mmHg 88%
    03:00 -5°C° 0 mm 2 mps 747 mmHg 87%
    04:00 -5°C° 0 mm 2 mps 747 mmHg 87%
    05:00 -5°C° 0 mm 2 mps 747 mmHg 87%
    06:00 -5°C° 0 mm 2 mps 748 mmHg 87%
    07:00 -5°C° 0 mm 2 mps 748 mmHg 88%
    08:00 -5°C° 0 mm 2 mps 749 mmHg 85%
    09:00 -4°C° 0 mm 2 mps 749 mmHg 82%
    10:00 -4°C° 0 mm 2 mps 750 mmHg 79%
    11:00 -4°C° 0 mm 2 mps 750 mmHg 76%
    12:00 -4°C° 0 mm 3 mps 750 mmHg 72%
    13:00 -4°C° 0 mm 3 mps 750 mmHg 69%
    14:00 -3°C° 0 mm 2 mps 750 mmHg 71%
    15:00 -3°C° 0 mm 2 mps 750 mmHg 73%
    16:00 -3°C° 0 mm 2 mps 750 mmHg 75%
    17:00 -2°C° 0 mm 1 mps 751 mmHg 77%
    18:00 -2°C° 0 mm 1 mps 751 mmHg 78%
    19:00 -2°C° 0 mm 1 mps 751 mmHg 80%
    20:00 -2°C° 0 mm 1 mps 751 mmHg 81%
    21:00 -3°C° 0 mm 1 mps 751 mmHg 81%
    22:00 -3°C° 0 mm 1 mps 751 mmHg 82%
    23:00 -3°C° 0 mm 1 mps 751 mmHg 82%
    Show more